WIF5H ENVA-ENBO

Flight info

Callsign WIF5H
Flight time 1h 5m
Altitude 23000
Route NIGEX DCT ODNOS
Aircraft DH8D/M-SDE2E3FGRY/H

Departure

Time 2026-04-29 16:41
Airport Trondheim Airport, Værnes (ENVA)

Arrival

Time 2026-04-29 17:47
Airport Bodø Airport (ENBO)
Time Latitude Longitude Altitude Speed Heading
2026-04-29 16:04 63.45494 10.91252 8 ft 0 kts 90°
2026-04-29 16:31 63.45494 10.91253 8 ft 0 kts 90°
2026-04-29 16:32 63.45494 10.91229 8 ft 2 kts 90°
2026-04-29 16:32 63.45494 10.91208 8 ft 1 kts 90°
2026-04-29 16:32 63.45492 10.91176 8 ft 2 kts 62°
2026-04-29 16:32 63.45482 10.91152 8 ft 2 kts 29°
2026-04-29 16:33 63.45466 10.91144 8 ft 0 kts 359°
2026-04-29 16:36 63.45475 10.91143 8 ft 5 kts 359°
2026-04-29 16:36 63.45524 10.91142 9 ft 9 kts 360°
2026-04-29 16:36 63.45589 10.91175 9 ft 10 kts 53°
2026-04-29 16:37 63.45600 10.91349 9 ft 16 kts 90°
2026-04-29 16:37 63.45600 10.91667 11 ft 20 kts 90°
2026-04-29 16:37 63.45600 10.91971 12 ft 18 kts 90°
2026-04-29 16:37 63.45600 10.92154 13 ft 17 kts 90°
2026-04-29 16:38 63.45600 10.92545 17 ft 18 kts 90°
2026-04-29 16:38 63.45600 10.92852 20 ft 19 kts 90°
2026-04-29 16:38 63.45600 10.93159 24 ft 20 kts 89°
2026-04-29 16:38 63.45600 10.93457 31 ft 18 kts 90°
2026-04-29 16:39 63.45599 10.93689 40 ft 12 kts 90°
2026-04-29 16:39 63.45628 10.93894 47 ft 14 kts 44°
2026-04-29 16:39 63.45687 10.94017 52 ft 9 kts 43°
2026-04-29 16:39 63.45724 10.94088 55 ft 4 kts 25°
2026-04-29 16:40 63.45755 10.94049 54 ft 6 kts 288°
2026-04-29 16:40 63.45757 10.93967 52 ft 4 kts 270°
2026-04-29 16:40 63.45760 10.93438 36 ft 78 kts 270°
2026-04-29 16:40 63.45758 10.91652 26 ft 141 kts 270°
2026-04-29 16:41 63.45766 10.89330 452 ft 153 kts 272°
2026-04-29 16:41 63.45777 10.86901 1074 ft 162 kts 274°
2026-04-29 16:41 63.46017 10.84478 1754 ft 161 kts 309°
2026-04-29 16:41 63.46978 10.83249 2327 ft 165 kts 339°
2026-04-29 16:42 63.48080 10.82528 2921 ft 165 kts 339°
2026-04-29 16:42 63.49174 10.81830 3537 ft 164 kts 339°
2026-04-29 16:42 63.50267 10.81150 4130 ft 166 kts 339°
2026-04-29 16:42 63.51404 10.80444 4678 ft 169 kts 339°
2026-04-29 16:43 63.52533 10.79750 5297 ft 168 kts 339°
2026-04-29 16:43 63.53657 10.79061 5896 ft 169 kts 339°
2026-04-29 16:43 63.54796 10.78365 6483 ft 170 kts 339°
2026-04-29 16:43 63.55927 10.77674 7080 ft 169 kts 339°
2026-04-29 16:44 63.57068 10.76980 7674 ft 171 kts 339°
2026-04-29 16:44 63.58206 10.76286 8275 ft 171 kts 340°
2026-04-29 16:44 63.59339 10.75598 8899 ft 169 kts 340°
2026-04-29 16:44 63.60477 10.74905 9491 ft 170 kts 340°
2026-04-29 16:45 63.61614 10.74212 10096 ft 169 kts 340°
2026-04-29 16:45 63.62752 10.73518 10673 ft 170 kts 339°
2026-04-29 16:45 63.63905 10.72815 11257 ft 171 kts 339°
2026-04-29 16:45 63.65071 10.72101 11791 ft 174 kts 340°
2026-04-29 16:46 63.66229 10.71394 12349 ft 174 kts 340°
2026-04-29 16:46 63.67411 10.70671 12906 ft 176 kts 339°
2026-04-29 16:46 63.68603 10.70157 13473 ft 181 kts 354°
2026-04-29 16:46 63.69855 10.71118 13870 ft 200 kts 16°
2026-04-29 16:47 63.71104 10.72672 14367 ft 203 kts 17°
2026-04-29 16:47 63.72337 10.74218 14872 ft 203 kts 17°
2026-04-29 16:47 63.73565 10.75757 15350 ft 204 kts 17°
2026-04-29 16:47 63.74823 10.77318 15749 ft 208 kts 17°
2026-04-29 16:48 63.76128 10.78927 16087 ft 215 kts 17°
2026-04-29 16:48 63.77449 10.80553 16399 ft 222 kts 17°
2026-04-29 16:48 63.78842 10.82267 16712 ft 230 kts 18°
2026-04-29 16:48 63.80279 10.84041 17025 ft 237 kts 17°
2026-04-29 16:49 63.81743 10.85849 17338 ft 243 kts 18°
2026-04-29 16:49 63.83241 10.87703 17652 ft 249 kts 18°
2026-04-29 16:49 63.84790 10.89622 17961 ft 254 kts 18°
2026-04-29 16:49 63.86356 10.91567 18267 ft 259 kts 18°
2026-04-29 16:50 63.87962 10.93567 18576 ft 262 kts 18°
2026-04-29 16:50 63.89566 10.95563 18886 ft 266 kts 18°
2026-04-29 16:50 63.91196 10.97594 19190 ft 269 kts 18°
2026-04-29 16:50 63.92851 10.99660 19499 ft 271 kts 19°
2026-04-29 16:51 63.94506 11.01732 19802 ft 273 kts 18°
2026-04-29 16:51 63.96182 11.03830 20108 ft 274 kts 18°
2026-04-29 16:51 63.97871 11.05949 20408 ft 275 kts 18°
2026-04-29 16:51 63.99560 11.08072 20712 ft 274 kts 18°
2026-04-29 16:52 64.01243 11.10187 21017 ft 273 kts 18°
2026-04-29 16:52 64.02889 11.12261 21315 ft 272 kts 18°
2026-04-29 16:52 64.04559 11.14367 21618 ft 270 kts 18°
2026-04-29 16:52 64.06197 11.16436 21915 ft 269 kts 17°
2026-04-29 16:53 64.07838 11.18509 22184 ft 268 kts 18°
2026-04-29 16:53 64.09482 11.20586 22436 ft 268 kts 18°
2026-04-29 16:53 64.11116 11.22655 22695 ft 267 kts 18°
2026-04-29 16:53 64.12756 11.24735 22953 ft 267 kts 18°
2026-04-29 16:54 64.14378 11.26793 23204 ft 267 kts 17°
2026-04-29 16:54 64.16029 11.28883 23297 ft 273 kts 18°
2026-04-29 16:54 64.17725 11.31044 23321 ft 281 kts 19°
2026-04-29 16:54 64.19276 11.34048 23319 ft 308 kts 39°
2026-04-29 16:55 64.20566 11.38153 23318 ft 319 kts 44°
2026-04-29 16:55 64.21839 11.42395 23313 ft 324 kts 44°
2026-04-29 16:55 64.23125 11.46690 23320 ft 326 kts 44°
2026-04-29 16:55 64.24410 11.50971 23310 ft 328 kts 44°
2026-04-29 16:56 64.25724 11.55342 23311 ft 330 kts 44°
2026-04-29 16:56 64.27026 11.59670 23314 ft 331 kts 44°
2026-04-29 16:56 64.28351 11.64070 23312 ft 332 kts 44°
2026-04-29 16:56 64.29672 11.68463 23309 ft 333 kts 45°
2026-04-29 16:57 64.30999 11.72876 23311 ft 333 kts 45°
2026-04-29 16:57 64.32310 11.77242 23307 ft 334 kts 45°
2026-04-29 16:57 64.33634 11.81657 23306 ft 334 kts 45°
2026-04-29 16:57 64.34959 11.86081 23314 ft 334 kts 45°
2026-04-29 16:58 64.36300 11.90563 23317 ft 334 kts 45°
2026-04-29 16:58 64.37627 11.95009 23313 ft 335 kts 45°
2026-04-29 16:58 64.39075 11.99122 23278 ft 319 kts 30°
2026-04-29 16:58 64.40945 12.01488 23335 ft 300 kts 13°
2026-04-29 16:59 64.42902 12.03230 23315 ft 300 kts 12°
2026-04-29 16:59 64.44867 12.04947 23309 ft 300 kts 12°
2026-04-29 16:59 64.46840 12.06662 23309 ft 301 kts 12°
2026-04-29 16:59 64.48796 12.08363 23306 ft 301 kts 12°
2026-04-29 17:00 64.50754 12.10069 23312 ft 301 kts 12°
2026-04-29 17:00 64.52726 12.11787 23313 ft 301 kts 12°
2026-04-29 17:00 64.54705 12.13514 23298 ft 302 kts 12°
2026-04-29 17:00 64.56677 12.15238 23297 ft 302 kts 12°
2026-04-29 17:01 64.58664 12.16977 23293 ft 302 kts 12°
2026-04-29 17:01 64.60635 12.18705 23295 ft 302 kts 12°
2026-04-29 17:01 64.62579 12.20412 23299 ft 302 kts 12°
2026-04-29 17:01 64.64545 12.22142 23297 ft 302 kts 12°
2026-04-29 17:02 64.66540 12.23898 23279 ft 303 kts 11°
2026-04-29 17:02 64.68501 12.25627 23279 ft 303 kts 12°
2026-04-29 17:02 64.70495 12.27389 23274 ft 303 kts 11°
2026-04-29 17:02 64.72469 12.29135 23272 ft 303 kts 12°
2026-04-29 17:03 64.74432 12.30873 23265 ft 303 kts 11°
2026-04-29 17:03 64.76436 12.32652 23263 ft 303 kts 12°
2026-04-29 17:03 64.78411 12.34407 23250 ft 304 kts 11°
2026-04-29 17:03 64.80379 12.36159 23249 ft 303 kts 12°
2026-04-29 17:04 64.82361 12.37927 23244 ft 303 kts 12°
2026-04-29 17:04 64.84332 12.39687 23243 ft 303 kts 12°
2026-04-29 17:04 64.86319 12.41464 23242 ft 303 kts 12°
2026-04-29 17:04 64.88294 12.43233 23243 ft 303 kts 12°
2026-04-29 17:05 64.90287 12.45021 23247 ft 303 kts 12°
2026-04-29 17:05 64.92255 12.46790 23243 ft 303 kts 12°
2026-04-29 17:05 64.94213 12.48551 23243 ft 303 kts 12°
2026-04-29 17:05 64.96185 12.50330 23237 ft 303 kts 12°
2026-04-29 17:06 64.98172 12.52124 23240 ft 303 kts 12°
2026-04-29 17:06 65.00142 12.53904 23237 ft 303 kts 12°
2026-04-29 17:06 65.02109 12.55685 23235 ft 303 kts 11°
2026-04-29 17:06 65.04083 12.57478 23239 ft 303 kts 12°
2026-04-29 17:07 65.06062 12.59274 23231 ft 303 kts 12°
2026-04-29 17:07 65.07392 12.60484 23240 ft 303 kts 12°
2026-04-29 17:07 65.10000 12.62861 23236 ft 303 kts 11°
2026-04-29 17:07 65.11995 12.64682 23238 ft 304 kts 12°
2026-04-29 17:08 65.13991 12.66506 23239 ft 304 kts 13°
2026-04-29 17:08 65.15952 12.68302 23243 ft 305 kts 12°
2026-04-29 17:08 65.17937 12.70124 23219 ft 306 kts 12°
2026-04-29 17:08 65.19932 12.71958 23234 ft 305 kts 12°
2026-04-29 17:09 65.21930 12.73796 23231 ft 305 kts 13°
2026-04-29 17:09 65.23907 12.75621 23238 ft 305 kts 12°
2026-04-29 17:09 65.25886 12.77447 23243 ft 304 kts 12°
2026-04-29 17:09 65.27851 12.79263 23238 ft 305 kts 12°
2026-04-29 17:10 65.29851 12.81115 23227 ft 305 kts 12°
2026-04-29 17:10 65.31850 12.82969 23224 ft 305 kts 12°
2026-04-29 17:10 65.33807 12.84788 23238 ft 305 kts 12°
2026-04-29 17:10 65.35820 12.86664 23215 ft 305 kts 12°
2026-04-29 17:11 65.37807 12.88517 23209 ft 305 kts 13°
2026-04-29 17:11 65.39771 12.90350 23208 ft 305 kts 12°
2026-04-29 17:11 65.41768 12.92217 23203 ft 306 kts 12°
2026-04-29 17:11 65.43733 12.94057 23199 ft 306 kts 12°
2026-04-29 17:12 65.45720 12.95922 23195 ft 306 kts 12°
2026-04-29 17:12 65.47719 12.97802 23193 ft 305 kts 12°
2026-04-29 17:12 65.49709 12.99676 23192 ft 305 kts 12°
2026-04-29 17:12 65.51027 13.00920 23183 ft 305 kts 12°
2026-04-29 17:13 65.53683 13.03427 23190 ft 305 kts 12°
2026-04-29 17:13 65.55655 13.05298 23218 ft 304 kts 13°
2026-04-29 17:13 65.57618 13.07157 23205 ft 301 kts 11°
2026-04-29 17:13 65.59564 13.09012 23174 ft 299 kts 12°
2026-04-29 17:14 65.61509 13.10856 22978 ft 300 kts 11°
2026-04-29 17:14 65.63464 13.12707 22691 ft 303 kts 12°
2026-04-29 17:14 65.65313 13.14465 22381 ft 301 kts 12°
2026-04-29 17:14 65.67374 13.16431 22020 ft 300 kts 12°
2026-04-29 17:15 65.69313 13.18283 21682 ft 298 kts 13°
2026-04-29 17:15 65.71226 13.20126 21345 ft 295 kts 12°
2026-04-29 17:15 65.73121 13.21931 20988 ft 290 kts 12°
2026-04-29 17:15 65.74982 13.23720 20671 ft 285 kts 12°
2026-04-29 17:16 65.76813 13.25494 20384 ft 279 kts 11°
2026-04-29 17:16 65.78622 13.27231 20055 ft 276 kts 11°
2026-04-29 17:16 65.80394 13.28945 19752 ft 272 kts 11°
2026-04-29 17:16 65.82144 13.30636 19434 ft 270 kts 11°
2026-04-29 17:17 65.83890 13.32325 19135 ft 267 kts 11°
2026-04-29 17:17 65.85610 13.33990 18834 ft 264 kts 11°
2026-04-29 17:17 65.87315 13.35643 18533 ft 262 kts 12°
2026-04-29 17:17 65.89008 13.37288 18239 ft 260 kts 12°
2026-04-29 17:18 65.90691 13.38926 17947 ft 259 kts 12°
2026-04-29 17:18 65.92361 13.40553 17652 ft 257 kts 12°
2026-04-29 17:18 65.94026 13.42177 17353 ft 255 kts 12°
2026-04-29 17:18 65.95686 13.43798 17075 ft 252 kts 11°
2026-04-29 17:19 65.97318 13.45396 16775 ft 252 kts 11°
2026-04-29 17:19 65.98927 13.46980 16491 ft 249 kts 11°
2026-04-29 17:19 66.00555 13.48576 16193 ft 249 kts 11°
2026-04-29 17:19 66.02169 13.50174 15891 ft 247 kts 11°
2026-04-29 17:20 66.03773 13.51751 15608 ft 247 kts 11°
2026-04-29 17:20 66.05347 13.53299 15334 ft 246 kts 11°
2026-04-29 17:20 66.06950 13.54881 15056 ft 245 kts 11°
2026-04-29 17:20 66.08541 13.56452 14774 ft 244 kts 12°
2026-04-29 17:21 66.10109 13.58005 14484 ft 244 kts 11°
2026-04-29 17:21 66.11694 13.59586 14207 ft 242 kts 12°
2026-04-29 17:21 66.13251 13.61132 13962 ft 245 kts 12°
2026-04-29 17:21 66.14855 13.62721 13698 ft 248 kts 11°
2026-04-29 17:22 66.16459 13.64307 13392 ft 252 kts 11°
2026-04-29 17:22 66.18095 13.65933 13127 ft 255 kts 13°
2026-04-29 17:22 66.19760 13.67600 12817 ft 258 kts 13°
2026-04-29 17:22 66.21444 13.69282 12538 ft 260 kts 13°
2026-04-29 17:23 66.23114 13.70953 12252 ft 260 kts 14°
2026-04-29 17:23 66.24791 13.72644 11919 ft 260 kts 13°
2026-04-29 17:23 66.26462 13.74324 11637 ft 258 kts 13°
2026-04-29 17:23 66.28140 13.76000 11361 ft 256 kts 13°
2026-04-29 17:24 66.29751 13.77890 11205 ft 253 kts 20°
2026-04-29 17:24 66.31256 13.80035 11091 ft 245 kts 21°
2026-04-29 17:24 66.32703 13.82138 11033 ft 236 kts 21°
2026-04-29 17:24 66.34089 13.84140 10988 ft 225 kts 20°
2026-04-29 17:25 66.35443 13.86093 10937 ft 218 kts 20°
2026-04-29 17:25 66.36798 13.88040 10915 ft 231 kts 19°
2026-04-29 17:25 66.38216 13.90068 10859 ft 232 kts 21°
2026-04-29 17:25 66.39617 13.92085 10787 ft 231 kts 20°
2026-04-29 17:26 66.41012 13.94271 10559 ft 247 kts 28°
2026-04-29 17:26 66.42381 13.97191 10082 ft 262 kts 28°
2026-04-29 17:26 66.43905 13.99346 10300 ft 238 kts 18°
2026-04-29 17:26 66.45365 14.01199 10424 ft 233 kts 19°
2026-04-29 17:27 66.46812 14.03084 10457 ft 239 kts 19°
2026-04-29 17:27 66.48294 14.05070 10433 ft 246 kts 20°
2026-04-29 17:27 66.49837 14.07182 10385 ft 253 kts 20°
2026-04-29 17:27 66.51392 14.09354 10342 ft 259 kts 21°
2026-04-29 17:28 66.52985 14.11611 10279 ft 262 kts 21°
2026-04-29 17:28 66.54574 14.13887 10227 ft 264 kts 21°
2026-04-29 17:28 66.56175 14.16192 10165 ft 265 kts 22°
2026-04-29 17:28 66.57755 14.18488 10104 ft 261 kts 22°
2026-04-29 17:29 66.59316 14.20763 10047 ft 257 kts 22°
2026-04-29 17:29 66.60843 14.22991 9993 ft 255 kts 22°
2026-04-29 17:29 66.62376 14.25236 9939 ft 253 kts 22°
2026-04-29 17:29 66.63404 14.26743 9893 ft 252 kts 22°
2026-04-29 17:30 66.65420 14.29706 9813 ft 251 kts 22°
2026-04-29 17:30 66.66927 14.31923 9762 ft 249 kts 22°
2026-04-29 17:30 66.68412 14.34120 9706 ft 248 kts 21°
2026-04-29 17:30 66.69920 14.36344 9647 ft 247 kts 22°
2026-04-29 17:31 66.71420 14.38371 9568 ft 243 kts 17°
2026-04-29 17:31 66.72952 14.40176 9524 ft 241 kts 16°
2026-04-29 17:31 66.74483 14.41952 9456 ft 240 kts 16°
2026-04-29 17:31 66.76003 14.43719 9408 ft 237 kts 16°
2026-04-29 17:32 66.77479 14.45452 9357 ft 236 kts 15°
2026-04-29 17:32 66.79011 14.47252 9189 ft 240 kts 16°
2026-04-29 17:32 66.80523 14.49021 9101 ft 240 kts 15°
2026-04-29 17:32 66.82040 14.50798 9044 ft 239 kts 15°
2026-04-29 17:33 66.83556 14.52601 8997 ft 238 kts 16°
2026-04-29 17:33 66.85066 14.54385 8938 ft 239 kts 17°
2026-04-29 17:33 66.86589 14.56194 8831 ft 244 kts 17°
2026-04-29 17:33 66.88148 14.58070 8692 ft 250 kts 18°
2026-04-29 17:34 66.89716 14.59974 8552 ft 250 kts 17°
2026-04-29 17:34 66.91290 14.61891 8412 ft 247 kts 17°
2026-04-29 17:34 66.92822 14.63752 8295 ft 240 kts 17°
2026-04-29 17:34 66.94308 14.65568 8166 ft 232 kts 17°
2026-04-29 17:35 66.96188 14.67873 8010 ft 222 kts 18°
2026-04-29 17:35 66.98450 14.70631 7824 ft 210 kts 17°
2026-04-29 17:35 66.99790 14.72259 7747 ft 214 kts 17°
2026-04-29 17:36 67.01149 14.73931 7648 ft 217 kts 16°
2026-04-29 17:36 67.02528 14.75608 7532 ft 221 kts 17°
2026-04-29 17:36 67.03932 14.77324 7405 ft 225 kts 17°
2026-04-29 17:36 67.05347 14.79058 7286 ft 227 kts 17°
2026-04-29 17:37 67.06780 14.80826 7151 ft 226 kts 17°
2026-04-29 17:37 67.08205 14.82582 7034 ft 227 kts 17°
2026-04-29 17:37 67.09645 14.84355 6939 ft 226 kts 17°
2026-04-29 17:37 67.11053 14.86105 6988 ft 224 kts 17°
2026-04-29 17:38 67.12461 14.87848 7005 ft 223 kts 17°
2026-04-29 17:38 67.13858 14.89578 6796 ft 222 kts 17°
2026-04-29 17:38 67.15242 14.91360 6542 ft 222 kts 18°
2026-04-29 17:38 67.16615 14.93174 6283 ft 223 kts 19°
2026-04-29 17:39 67.18006 14.94957 5952 ft 221 kts 18°
2026-04-29 17:39 67.19421 14.96236 5585 ft 211 kts
2026-04-29 17:39 67.20886 14.96393 5274 ft 212 kts 356°
2026-04-29 17:39 67.22355 14.96443 4922 ft 215 kts 355°
2026-04-29 17:40 67.23881 14.96447 4539 ft 219 kts 355°
2026-04-29 17:40 67.25385 14.96172 4149 ft 216 kts 342°
2026-04-29 17:40 67.26718 14.94573 3768 ft 211 kts 328°
2026-04-29 17:40 67.28033 14.93012 3562 ft 198 kts 329°
2026-04-29 17:41 67.28809 14.90557 3479 ft 173 kts 277°
2026-04-29 17:41 67.28551 14.87621 3491 ft 168 kts 242°
2026-04-29 17:41 67.28048 14.84928 3463 ft 162 kts 252°
2026-04-29 17:41 67.27837 14.82175 3475 ft 148 kts 264°
2026-04-29 17:42 67.27750 14.79625 3459 ft 134 kts 266°
2026-04-29 17:42 67.27695 14.77252 3428 ft 133 kts 268°
2026-04-29 17:42 67.27657 14.74833 3271 ft 137 kts 268°
2026-04-29 17:42 67.27621 14.72374 3022 ft 136 kts 268°
2026-04-29 17:43 67.27591 14.69952 2770 ft 132 kts 268°
2026-04-29 17:43 67.27567 14.67593 2551 ft 131 kts 268°
2026-04-29 17:43 67.27546 14.65230 2347 ft 129 kts 267°
2026-04-29 17:43 67.27525 14.62923 2147 ft 128 kts 267°
2026-04-29 17:44 67.27503 14.60605 1949 ft 129 kts 266°
2026-04-29 17:44 67.27480 14.58287 1754 ft 129 kts 266°
2026-04-29 17:44 67.27456 14.55965 1559 ft 130 kts 266°
2026-04-29 17:44 67.27430 14.53603 1361 ft 131 kts 266°
2026-04-29 17:45 67.27476 14.51274 1105 ft 129 kts 272°
2026-04-29 17:45 67.27563 14.49050 817 ft 120 kts 272°
2026-04-29 17:45 67.27634 14.46857 600 ft 121 kts 269°
2026-04-29 17:45 67.27587 14.44689 407 ft 117 kts 257°
2026-04-29 17:46 67.27438 14.42674 293 ft 114 kts 255°
2026-04-29 17:46 67.27275 14.40664 174 ft 114 kts 255°
2026-04-29 17:46 67.27104 14.38717 60 ft 103 kts 255°
2026-04-29 17:46 67.26990 14.37371 62 ft 55 kts 259°
2026-04-29 17:47 67.26927 14.36606 59 ft 25 kts 259°
2026-04-29 17:47 67.26907 14.36352 57 ft 8 kts 266°
2026-04-29 17:47 67.26959 14.36202 53 ft 7 kts 344°
2026-04-29 17:47 67.26965 14.36198 53 ft 0 kts 345°
2026-04-29 17:48 67.26966 14.36197 53 ft 1 kts 345°
2026-04-29 17:48 67.27011 14.36204 51 ft 10 kts 33°
2026-04-29 17:48 67.27042 14.36372 52 ft 10 kts 68°
2026-04-29 17:48 67.27113 14.36422 49 ft 12 kts 348°
2026-04-29 17:49 67.27178 14.36389 47 ft 6 kts
2026-04-29 17:49 67.27217 14.36478 46 ft 6 kts 41°
2026-04-29 17:49 67.27240 14.36515 46 ft 2 kts 31°
2026-04-29 17:49 67.27244 14.36521 46 ft 0 kts 30°